{"data":{"norad_id":59919,"epoch":"2026-09-22T21:24:21.145824Z","epoch_age_seconds":68804,"freshness":"FRESH","line1":"1 59919U 24105C   26265.89191141  .00001548  00000+0  95043-4 0  9992","line2":"2 59919  97.5793 281.7301 0030866 207.4695 152.4905 15.11230732127903","mean_motion":15.11230732,"eccentricity":0.0030866,"inclination_deg":97.5793,"raan_deg":281.7301,"arg_perigee_deg":207.4695,"mean_anomaly_deg":152.4905,"bstar":9.5043e-5,"rev_number":12790,"period_min":95.286574677731,"perigee_km":511.11530897146,"apogee_km":553.77571694044,"semimajor_km":6910.582512956,"source":"CELESTRAK","updated_at":"2026-09-23T09:00:20.347847Z"}}